Flag for Germany Weather past 2 weeks in Radolfzell am Bodensee, Baden-Württemberg, Germany

Now
62 °F

Passing clouds.


Feels Like: 62 °F
Forecast: 47 / 66 °F
Wind: 2 mph from West

Location: Konstanz

Current Time: Aug 30, 2014 at 5:08:46 AM

Latest Report: Aug 30, 2014 at 4:00 AM


Visibility: 22 mi

Pressure: 30.09 "Hg

Humidity: 90%

Dew point: 59 °F

Location of Radolfzell am BodenseeLocation

Historic Weather in Radolfzell am Bodensee — Graph

°F

Radolfzell am Bodensee temperature yesterday

Maximum temperature yesterday: 72 °F (at 4:00 PM)
Minimum temperature yesterday: 58 °F (at 4:00 AM)
Average temperature yesterday: 64 °F

Past Weeks' High & Low Weather Summary

 TemperatureHumidityPressure
High73 °F (Aug 28, 4:00 PM)99% (Aug 28, 1:00 AM)30.21 "Hg (Aug 28, 1:00 AM)
Low48 °F (Aug 17, 7:00 AM)38% (Aug 21, 5:00 PM)29.75 "Hg (Aug 26, 7:00 PM)
Average60 °F74%30.01 "Hg
* Reported Aug 15 4:00 AM — Aug 30 4:00 AM, Radolfzell am Bodensee, Weather by CustomWeather, © 2014

Note: Actual official high and low records may vary slightly from our data, if they occured in-between our weather recording intervals... More about our weather records

Advertising

Radolfzell am Bodensee weather history for previous 24 hours

 ConditionsComfort  
Time TempWeatherWind HumidityBarometerVisibility
4:00 AM
Aug 30
62 °FPassing clouds.2 mph90%30.09 "Hg22 mi
3:00 AM63 °FOvercast.2 mph92%30.09 "Hg18 mi
2:00 AM63 °FLight rain. Overcast.3 mph91%30.09 "Hg19 mi
1:00 AM64 °FLight rain. Overcast.2 mph91%30.08 "Hg17 mi
12:00 AM64 °FOvercast.2 mph92%30.08 "Hg17 mi
9:00 PM
Aug 29
64 °FLow clouds.1 mph93%30.05 "Hg19 mi
8:00 PM65 °FOvercast.2 mph88%30.04 "Hg37 mi
7:00 PM66 °FLight rain. Overcast.1 mph89%30.03 "Hg6 mi
6:00 PM69 °FOvercast.1 mph69%30.02 "Hg37 mi
5:00 PM71 °FSprinkles. Overcast.2 mph66%30.00 "Hg22 mi
4:00 PM72 °FOvercast.2 mph68%30.00 "Hg14 mi
3:00 PM70 °FPartly sunny.2 mph73%30.02 "Hg14 mi
2:00 PM70 °FOvercast.2 mph75%30.04 "Hg16 mi
1:00 PM68 °FOvercast.2 mph77%30.05 "Hg9 mi
12:00 PM65 °FLight rain. Overcast.1 mph88%30.06 "Hg9 mi
11:00 AM63 °FLight rain. Low clouds.1 mph91%30.07 "Hg6 mi
10:00 AM62 °FOvercast.1 mph93%30.07 "Hg5 mi
9:00 AM61 °FOvercast.2 mph90%30.06 "Hg9 mi
8:00 AM60 °FLow clouds.1 mph94%30.06 "Hg8 mi
7:00 AM59 °FLow clouds.2 mph95%30.06 "Hg8 mi
6:00 AM58 °FPassing clouds.2 mph96%30.05 "Hg8 mi
5:00 AM58 °FClear.2 mph96%30.06 "Hg7 mi
Weather by CustomWeather, © 2014

See weather overviewHow to use our weather pages